• In Netherlands
  • List of Countries
  • For 7 days
  • Water Temperature
  • Satellite Maps
  • Weather Map
  • Weather Widgets
  • user-avatar
    Login

    Hourly Weather Mendoza

    Today, 18 January, Wednesday

    Time Temperature Precipitation Wind Pressure Humidity
    00:00 +28°C° 0 mm 2 mps 696 mmHg 39%
    01:00 +28°C° 0 mm 3 mps 696 mmHg 41%
    02:00 +27°C° 0 mm 3 mps 696 mmHg 42%
    03:00 +27°C° 0 mm 3 mps 696 mmHg 43%
    04:00 +26°C° 0 mm 3 mps 696 mmHg 45%
    05:00 +27°C° 0 mm 4 mps 696 mmHg 41%
    06:00 +27°C° 0 mm 5 mps 697 mmHg 37%
    07:00 +28°C° 0 mm 6 mps 697 mmHg 33%
    08:00 +29°C° 0 mm 6 mps 698 mmHg 29%
    09:00 +30°C° 0 mm 6 mps 698 mmHg 26%
    10:00 +33°C° 0 mm 6 mps 698 mmHg 22%
    11:00 +34°C° 0 mm 5 mps 698 mmHg 22%
    12:00 +35°C° 0 mm 4 mps 697 mmHg 21%
    13:00 +36°C° 0 mm 4 mps 697 mmHg 20%
    14:00 +36°C° 0 mm 3 mps 697 mmHg 21%
    15:00 +36°C° 0 mm 3 mps 697 mmHg 21%
    16:00 +36°C° 0 mm 2 mps 696 mmHg 22%
    17:00 +35°C° 0 mm 2 mps 697 mmHg 25%
    18:00 +34°C° 0 mm 2 mps 697 mmHg 28%
    19:00 +31°C° 0 mm 2 mps 697 mmHg 32%
    20:00 +31°C° 0 mm 2 mps 697 mmHg 34%
    21:00 +30°C° 0 mm 2 mps 698 mmHg 36%
    22:00 +29°C° 0 mm 2 mps 698 mmHg 38%
    23:00 +29°C° 0 mm 2 mps 698 mmHg 39%

    Tomorrow, 19 January, Thursday

    Time Temperature Precipitation Wind Pressure Humidity
    00:00 +28°C° 0 mm 2 mps 697 mmHg 41%
    01:00 +28°C° 0 mm 2 mps 697 mmHg 42%
    02:00 +27°C° 0 mm 2 mps 697 mmHg 42%
    03:00 +27°C° 0 mm 2 mps 697 mmHg 43%
    04:00 +26°C° 0 mm 2 mps 697 mmHg 43%
    05:00 +27°C° 0 mm 2 mps 697 mmHg 39%
    06:00 +29°C° 0 mm 2 mps 698 mmHg 34%
    07:00 +30°C° 0 mm 2 mps 698 mmHg 30%
    08:00 +33°C° 0 mm 3 mps 699 mmHg 28%
    09:00 +34°C° 0 mm 3 mps 699 mmHg 25%
    10:00 +36°C° 0 mm 3 mps 699 mmHg 23%
    11:00 +37°C° 0 mm 3 mps 699 mmHg 22%
    12:00 +38°C° 0 mm 3 mps 699 mmHg 21%
    13:00 +39°C° 0 mm 3 mps 698 mmHg 19%
    14:00 +39°C° 0 mm 3 mps 698 mmHg 19%
    15:00 +39°C° 0 mm 3 mps 698 mmHg 19%
    16:00 +39°C° 0 mm 3 mps 698 mmHg 18%
    17:00 +38°C° 0 mm 3 mps 698 mmHg 21%
    18:00 +36°C° 0 mm 2 mps 698 mmHg 23%
    19:00 +35°C° 0 mm 2 mps 698 mmHg 26%
    20:00 +34°C° 0 mm 2 mps 699 mmHg 28%
    21:00 +33°C° 0 mm 3 mps 699 mmHg 29%
    22:00 +33°C° 0 mm 3 mps 700 mmHg 31%
    23:00 +31°C° 0 mm 3 mps 699 mmHg 33%

    Day after tomorrow, 20 January, Friday

    Time Temperature Precipitation Wind Pressure Humidity
    00:00 +30°C° 0 mm 3 mps 699 mmHg 34%
    01:00 +29°C° 0 mm 2 mps 699 mmHg 35%
    02:00 +29°C° 0 mm 2 mps 699 mmHg 36%
    03:00 +28°C° 0 mm 2 mps 699 mmHg 36%
    04:00 +28°C° 0 mm 2 mps 698 mmHg 37%
    05:00 +29°C° 0 mm 2 mps 699 mmHg 34%
    06:00 +30°C° 0 mm 2 mps 699 mmHg 31%
    07:00 +31°C° 0 mm 2 mps 700 mmHg 28%
    08:00 +34°C° 0 mm 2 mps 700 mmHg 27%
    09:00 +35°C° 0 mm 2 mps 700 mmHg 25%
    10:00 +37°C° 0 mm 2 mps 700 mmHg 24%
    11:00 +38°C° 0 mm 3 mps 700 mmHg 23%
    12:00 +40°C° 0 mm 4 mps 699 mmHg 22%
    13:00 +41°C° 0 mm 5 mps 699 mmHg 20%
    14:00 +41°C° 0.1 mm 5 mps 698 mmHg 20%
    15:00 +41°C° 0.1 mm 5 mps 698 mmHg 21%
    16:00 +42°C° 0.1 mm 5 mps 698 mmHg 21%
    17:00 +40°C° 0.1 mm 4 mps 698 mmHg 23%
    18:00 +38°C° 0.1 mm 4 mps 698 mmHg 26%
    19:00 +36°C° 0.1 mm 3 mps 698 mmHg 28%
    20:00 +35°C° 0.2 mm 3 mps 699 mmHg 30%
    21:00 +34°C° 0.2 mm 3 mps 699 mmHg 32%
    22:00 +34°C° 0.2 mm 4 mps 699 mmHg 34%
    23:00 +33°C° 0.1 mm 3 mps 699 mmHg 36%

    21 January, Saturday

    Time Temperature Precipitation Wind Pressure Humidity
    00:00 +31°C° 0.1 mm 3 mps 699 mmHg 37%
    01:00 +31°C° 0.1 mm 3 mps 698 mmHg 39%
    02:00 +30°C° 0 mm 3 mps 698 mmHg 39%
    03:00 +29°C° 0 mm 3 mps 698 mmHg 40%
    04:00 +29°C° 0 mm 3 mps 698 mmHg 40%
    05:00 +30°C° 0 mm 3 mps 698 mmHg 36%
    06:00 +31°C° 0 mm 2 mps 699 mmHg 33%
    07:00 +32°C° 0 mm 2 mps 699 mmHg 29%
    08:00 +35°C° 0 mm 3 mps 700 mmHg 27%
    09:00 +36°C° 0 mm 3 mps 700 mmHg 25%
    10:00 +38°C° 0 mm 4 mps 700 mmHg 23%
    11:00 +40°C° 0.1 mm 4 mps 699 mmHg 22%
    12:00 +41°C° 0.1 mm 5 mps 699 mmHg 21%
    13:00 +42°C° 0.1 mm 5 mps 698 mmHg 19%
    14:00 +42°C° 0.2 mm 5 mps 698 mmHg 19%
    15:00 +42°C° 0.2 mm 5 mps 698 mmHg 19%
    16:00 +42°C° 0.2 mm 4 mps 697 mmHg 19%
    17:00 +40°C° 0.2 mm 4 mps 697 mmHg 22%
    18:00 +37°C° 0.2 mm 3 mps 698 mmHg 26%
    19:00 +36°C° 0.2 mm 2 mps 698 mmHg 29%
    20:00 +35°C° 0.3 mm 2 mps 698 mmHg 30%
    21:00 +34°C° 0.3 mm 3 mps 698 mmHg 31%
    22:00 +34°C° 0.3 mm 3 mps 699 mmHg 33%
    23:00 +33°C° 0.2 mm 3 mps 698 mmHg 34%

    22 January, Sunday

    Time Temperature Precipitation Wind Pressure Humidity
    00:00 +31°C° 0.2 mm 3 mps 698 mmHg 36%
    01:00 +30°C° 0.2 mm 3 mps 698 mmHg 37%
    02:00 +30°C° 0.1 mm 2 mps 698 mmHg 38%
    03:00 +29°C° 0.1 mm 2 mps 697 mmHg 39%
    04:00 +28°C° 0.1 mm 2 mps 697 mmHg 40%
    05:00 +29°C° 0.1 mm 2 mps 698 mmHg 38%
    06:00 +30°C° 0.1 mm 2 mps 698 mmHg 36%
    07:00 +31°C° 0.1 mm 3 mps 699 mmHg 34%
    08:00 +34°C° 0.1 mm 3 mps 699 mmHg 32%
    09:00 +35°C° 0.1 mm 3 mps 699 mmHg 30%
    10:00 +36°C° 0.1 mm 3 mps 699 mmHg 28%
    11:00 +37°C° 0.3 mm 3 mps 699 mmHg 26%
    12:00 +38°C° 0.3 mm 3 mps 698 mmHg 25%
    13:00 +39°C° 0.3 mm 3 mps 698 mmHg 24%
    14:00 +39°C° 0.4 mm 3 mps 698 mmHg 24%
    15:00 +39°C° 0.4 mm 3 mps 697 mmHg 24%
    16:00 +39°C° 0.4 mm 2 mps 697 mmHg 24%
    17:00 +38°C° 0.6 mm 3 mps 697 mmHg 27%
    18:00 +36°C° 0.6 mm 3 mps 698 mmHg 31%
    19:00 +35°C° 0.6 mm 3 mps 698 mmHg 34%
    20:00 +34°C° 0.6 mm 3 mps 698 mmHg 37%
    21:00 +33°C° 0.6 mm 3 mps 698 mmHg 39%
    22:00 +33°C° 0.6 mm 3 mps 699 mmHg 41%
    23:00 +30°C° 0.8 mm 3 mps 698 mmHg 45%

    23 January, Monday

    Time Temperature Precipitation Wind Pressure Humidity
    00:00 +29°C° 0.8 mm 3 mps 698 mmHg 49%
    01:00 +28°C° 0.8 mm 3 mps 698 mmHg 54%
    02:00 +28°C° 0.2 mm 3 mps 698 mmHg 54%
    03:00 +28°C° 0.2 mm 3 mps 698 mmHg 54%
    04:00 +27°C° 0.2 mm 3 mps 698 mmHg 54%
    05:00 +28°C° 0.2 mm 2 mps 698 mmHg 51%
    06:00 +29°C° 0.2 mm 2 mps 698 mmHg 48%
    07:00 +30°C° 0.2 mm 2 mps 699 mmHg 45%
    08:00 +31°C° 0.1 mm 2 mps 699 mmHg 41%
    09:00 +34°C° 0.1 mm 2 mps 699 mmHg 37%
    10:00 +35°C° 0.1 mm 2 mps 699 mmHg 34%
    11:00 +36°C° 0.1 mm 2 mps 698 mmHg 32%
    12:00 +37°C° 0.1 mm 3 mps 698 mmHg 30%
    13:00 +38°C° 0.1 mm 4 mps 698 mmHg 28%
    14:00 +40°C° 0.5 mm 4 mps 697 mmHg 28%
    15:00 +40°C° 0.5 mm 4 mps 697 mmHg 27%
    16:00 +40°C° 0.5 mm 5 mps 697 mmHg 27%
    17:00 +37°C° 0.9 mm 4 mps 697 mmHg 30%
    18:00 +36°C° 0.9 mm 4 mps 697 mmHg 32%
    19:00 +35°C° 0.9 mm 3 mps 698 mmHg 35%
    20:00 +34°C° 0.3 mm 3 mps 698 mmHg 37%
    21:00 +33°C° 0.3 mm 3 mps 698 mmHg 39%
    22:00 +31°C° 0.3 mm 2 mps 698 mmHg 41%
    23:00 +31°C° 0 mm 2 mps 698 mmHg 42%
    Show more